K4MZ Weather Reports


Display with metric or nautical units.
time (UTC)temp
F
wind
direction
speed
MPH
gust
MPH
rain 1hr
in
rain 24hr
in
rain mn
in
humidity
%
barometer
mb
20260510124601 67 317 1.0 3.0 0.00 0.00 0.00 82 1015.7
20260510123520 66 119 1.0 2.0 0.00 0.00 0.00 85 1015.6
20260510122658 65 82 1.0 2.0 0.00 0.00 0.00 86 1015.5
20260510121538 65 95 0.0 2.0 0.00 0.00 0.00 88 1015.3
20260510120538 62 97 0.0 2.0 0.00 0.00 0.00 91 1015.1
20260510115521 60 56 0.0 1.0 0.00 0.00 0.00 92 1015.0
20260510114518 56 72 0.0 1.0 0.00 0.00 0.00 93 1014.8
20260510113538 54 78 1.0 1.0 0.00 0.00 0.00 93 1014.7
20260510112608 52 74 0.0 1.0 0.00 0.00 0.00 92 1014.5
20260510111527 52 93 0.0 1.0 0.00 0.00 0.00 92 1014.4
20260510110548 52 62 0.0 1.0 0.00 0.00 0.00 91 1014.2
20260510105528 52 92 0.0 0.0 0.00 0.00 0.00 91 1013.9
20260510104528 52 77 0.0 1.0 0.00 0.00 0.00 91 1013.7
20260510103528 52 2 0.0 1.0 0.00 0.00 0.00 91 1013.6
20260510102548 52 70 0.0 1.0 0.00 0.00 0.00 91 1013.5
20260510101549 52 20 0.0 1.0 0.00 0.00 0.00 90 1013.5
20260510100529 52 67 0.0 0.0 0.00 0.00 0.00 90 1013.5
20260510095529 53 119 0.0 1.0 0.00 0.00 0.00 90 1013.3
20260510094529 53 98 0.0 1.0 0.00 0.00 0.00 89 1013.4
20260510093549 53 110 0.0 1.0 0.00 0.00 0.00 89 1013.3
20260510092530 54 114 0.0 1.0 0.00 0.00 0.00 88 1013.1
20260510091550 55 68 0.0 1.0 0.00 0.00 0.00 88 1013.0
20260510090530 55 132 1.0 1.0 0.00 0.00 0.00 88 1012.7
20260510085530 56 95 0.0 1.0 0.00 0.00 0.00 87 1012.6
20260510084550 57 68 0.0 1.0 0.00 0.00 0.00 86 1012.6
20260510083530 57 97 0.0 1.0 0.00 0.00 0.00 85 1012.5
20260510082632 58 104 0.0 1.0 0.00 0.00 0.00 85 1012.3
20260510080536 61 96 1.0 3.0 0.00 0.00 0.00 84 1012.1
20260510075611 62 330 2.0 3.0 0.00 0.00 0.00 84 1011.8
20260510074552 62 319 2.0 3.0 0.00 0.00 0.00 86 1011.7
20260510073523 61 320 3.0 6.0 0.00 0.00 0.00 87 1011.7
20260510072714 58 315 2.0 4.0 0.00 0.00 0.00 89 1011.9
20260510071517 58 78 1.0 2.0 0.00 0.00 0.00 88 1012.0
20260510070517 59 86 1.0 2.0 0.00 0.00 0.00 88 1012.0
20260510065537 59 117 1.0 1.0 0.00 0.00 0.00 87 1012.1
20260510064558 60 123 0.0 2.0 0.00 0.00 0.00 86 1012.0
20260510063516 60 162 1.0 2.0 0.00 0.00 0.00 86 1012.1
20260510062518 61 100 0.0 1.0 0.00 0.00 0.00 85 1012.0
20260510061532 63 100 1.0 2.0 0.00 0.00 0.00 84 1012.1
20260510060518 64 143 0.0 1.0 0.00 0.00 0.00 85 1012.1
20260510055518 64 315 2.0 5.0 0.00 0.00 0.00 86 1012.2
20260510054518 63 311 2.0 5.0 0.00 0.00 0.00 87 1012.2
20260510052557 60 266 0.0 4.0 0.00 0.00 0.00 89 1012.3
20260510051517 59 126 0.0 2.0 0.00 0.00 0.00 89 1012.4
20260510045519 59 110 1.0 1.0 0.00 0.00 0.00 88 1012.4
20260510044518 59 105 0.0 1.0 0.00 0.00 0.00 87 1012.6
20260510043559 59 100 1.0 2.0 0.00 0.00 0.00 87 1012.5
20260510042538 59 111 0.0 1.0 0.00 0.00 0.00 86 1012.5
20260510041538 59 93 0.0 1.0 0.00 0.00 0.00 86 1012.5
20260510040539 59 108 0.0 1.0 0.00 0.00 0.00 85 1012.4
20260510035518 59 9 0.0 1.0 0.00 0.00 0.00 84 1012.4
20260510034559 60 60 0.0 1.0 0.00 0.00 0.00 84 1012.5
20260510033519 60 101 0.0 1.0 0.00 0.00 0.00 83 1012.3
20260510032519 60 89 0.0 0.0 0.00 0.00 0.00 83 1012.2
20260510031539 60 0.0 0.0 0.00 0.00 0.00 82 1012.2
20260510030519 61 107 0.0 1.0 0.00 0.00 0.00 82 1012.1
20260510025519 61 110 1.0 1.0 0.00 0.00 0.00 81 1012.0
20260510024520 61 94 0.0 1.0 0.00 0.00 0.00 81 1012.0
20260510023520 62 112 0.0 1.0 0.00 0.00 0.00 80 1012.0
20260510022540 62 144 0.0 1.0 0.00 0.00 0.00 80 1011.9
20260510021520 62 116 0.0 1.0 0.00 0.00 0.00 79 1011.8
20260510020521 62 105 0.0 1.0 0.00 0.00 0.00 78 1011.7
20260510015541 62 118 0.0 1.0 0.00 0.00 0.00 77 1011.4
20260510014521 63 95 0.0 0.0 0.00 0.00 0.00 77 1011.2
20260510013521 63 114 1.0 1.0 0.00 0.00 0.00 76 1011.1
20260510012541 64 123 0.0 1.0 0.00 0.00 0.00 76 1010.9
20260510011517 64 125 0.0 1.0 0.00 0.00 0.00 75 1010.7
20260510010517 65 118 0.0 1.0 0.00 0.00 0.00 74 1010.5
20260510005521 66 135 0.0 1.0 0.00 0.00 0.00 73 1010.4
20260510004518 66 117 0.0 1.0 0.00 0.00 0.00 72 1010.2
20260510003619 67 143 0.0 1.0 0.00 0.00 0.00 70 1010.2
20260510002659 68 130 1.0 3.0 0.00 0.00 0.00 69 1010.1
20260510001558 69 134 1.0 3.0 0.00 0.00 0.00 67 1010.1
20260510000539 70 116 1.0 2.0 0.00 0.00 0.00 65 1010.0
20260509235539 71 101 1.0 2.0 0.00 0.00 0.00 64 1009.9
20260509234619 72 114 1.0 3.0 0.00 0.00 0.00 63 1009.8
20260509233516 73 101 1.0 4.0 0.00 0.00 0.00 62 1009.7
20260509232539 72 87 1.0 4.0 0.00 0.00 0.00 62 1009.6
20260509231519 73 115 1.0 5.0 0.00 0.00 0.00 62 1009.4
20260509230519 73 27 1.0 3.0 0.00 0.00 0.00 61 1009.3
20260509225558 73 101 1.0 3.0 0.00 0.00 0.00 61 1009.2
20260509224517 73 124 1.0 3.0 0.00 0.00 0.00 61 1009.2
20260509223517 73 94 2.0 4.0 0.00 0.00 0.00 61 1009.2
20260509222520 73 100 2.0 4.0 0.00 0.00 0.00 61 1009.4
20260509221558 73 85 1.0 4.0 0.00 0.00 0.00 59 1009.4
20260509220518 73 86 1.0 3.0 0.00 0.00 0.00 58 1009.2
20260509215538 74 114 2.0 4.0 0.00 0.00 0.00 56 1009.3
20260509214601 75 97 1.0 4.0 0.00 0.00 0.00 55 1009.3
20260509213518 76 84 1.0 3.0 0.00 0.00 0.00 52 1009.1
20260509212518 76 124 1.0 2.0 0.00 0.00 0.00 50 1008.9
20260509211619 77 299 1.0 4.0 0.00 0.00 0.00 49 1008.8
20260509210519 79 189 1.0 5.0 0.00 0.00 0.00 46 1008.8
20260509205519 78 263 1.0 6.0 0.00 0.00 0.00 48 1008.7
20260509204539 79 100 2.0 6.0 0.00 0.00 0.00 47 1008.7
20260509203539 79 134 1.0 5.0 0.00 0.00 0.00 47 1008.7
20260509202519 78 313 2.0 7.0 0.00 0.00 0.00 49 1008.9
20260509201517 77 120 1.0 5.0 0.00 0.00 0.00 50 1009.1
20260509200519 76 104 2.0 7.0 0.00 0.00 0.00 54 1009.2
20260509195520 74 76 2.0 4.0 0.00 0.00 0.00 55 1009.2
20260509194517 75 126 1.0 4.0 0.00 0.00 0.00 52 1009.3
20260509193658 76 140 2.0 7.0 0.00 0.00 0.00 49 1009.3
20260509192601 77 316 3.0 9.0 0.00 0.00 0.00 48 1009.3
20260509191518 76 132 1.0 6.0 0.00 0.00 0.00 49 1009.3
20260509190537 74 54 1.0 5.0 0.00 0.00 0.00 51 1009.5
20260509185517 75 88 2.0 6.0 0.00 0.00 0.00 50 1009.7
20260509184518 75 103 1.0 5.0 0.00 0.00 0.00 51 1009.7
20260509183519 75 113 2.0 5.0 0.00 0.00 0.00 51 1010.0
20260509182558 75 253 3.0 8.0 0.00 0.00 0.00 52 1010.0
20260509181519 74 113 2.0 7.0 0.00 0.00 0.00 53 1010.3
20260509180559 73 117 3.0 7.0 0.00 0.00 0.00 54 1010.4
20260509175619 73 95 2.0 4.0 0.00 0.00 0.00 54 1010.4
20260509174600 73 89 2.0 6.0 0.00 0.00 0.00 55 1010.5
20260509173600 74 108 3.0 9.0 0.00 0.00 0.00 54 1010.4
20260509172540 73 97 3.0 7.0 0.00 0.00 0.00 54 1010.6
20260509170516 72 351 2.0 8.0 0.00 0.00 0.00 57 1011.0
20260509165540 72 324 3.0 8.0 0.00 0.00 0.00 58 1011.0
20260509164520 70 111 3.0 9.0 0.00 0.00 0.00 60 1011.1
20260509163537 70 129 2.0 7.0 0.00 0.00 0.00 59 1011.2
20260509162558 70 101 3.0 7.0 0.00 0.00 0.00 60 1011.3
20260509161518 69 104 2.0 5.0 0.00 0.00 0.00 61 1011.4
20260509160538 70 79 2.0 7.0 0.00 0.00 0.00 60 1011.5
20260509155538 71 90 2.0 6.0 0.00 0.00 0.00 59 1011.3
20260509154619 70 103 2.0 7.0 0.00 0.00 0.00 61 1011.4
20260509153538 70 118 2.0 7.0 0.00 0.00 0.00 61 1011.5
20260509152559 70 124 2.0 4.0 0.00 0.00 0.00 62 1011.6
20260509151619 68 73 2.0 8.0 0.00 0.00 0.00 64 1011.7
20260509150519 68 115 2.0 6.0 0.00 0.00 0.00 66 1011.8
20260509145520 67 132 2.0 4.0 0.00 0.00 0.00 67 1012.0
20260509144516 66 301 2.0 5.0 0.00 0.00 0.00 68 1012.1
20260509143536 66 128 2.0 7.0 0.00 0.00 0.00 68 1012.1
20260509142620 65 91 2.0 6.0 0.00 0.00 0.00 69 1012.0
20260509141600 65 194 2.0 5.0 0.00 0.00 0.00 70 1011.9
20260509140557 64 91 2.0 6.0 0.00 0.00 0.00 71 1012.2
20260509135537 63 136 2.0 5.0 0.00 0.00 0.00 73 1012.5
20260509134520 61 90 2.0 5.0 0.00 0.00 0.00 74 1012.8
20260509133600 61 80 2.0 8.0 0.00 0.00 0.00 74 1013.0
20260509132517 61 128 2.0 4.0 0.00 0.00 0.00 74 1013.2
20260509130618 60 110 1.0 4.0 0.00 0.00 0.00 78 1013.2
20260509125538 59 111 2.0 3.0 0.00 0.00 0.00 79 1013.3